Wind_Speed
15 18 22 24 26 27 27 28 29 29 29 29 28 27 26 24 23 22 23 23 23 23 23 22 22 21 20 18 17 15 14 13 12 12 12 11 10 10 10 9 7 7 6 5 5 4 4 4 4 4 4 4 4 4 5 5 5 5 6 6 6 5 5 5 5 6 6 7 7 6 6 4 4 4 4 4 4 4 4 4 5 5 4 4 3
18 18 21 25 27 28 29 29 30 30 30 30 30 29 27 26 25 23 23 24 24 23 23 22 21 20 20 18 17 16 14 13 12 12 11 11 10 9 9 9 8 7 6 5 5 4 4 4 4 4 4 4 4 4 5 5 5 5 5 6 6 5 5 5 4 6 6 6 6 6 5 4 3 3 3 3 4 3 3 3 4 4 3 4 4
19 19 20 24 27 29 30 30 31 31 31 30 30 30 29 28 27 26 25 24 24 24 23 22 21 20 20 19 18 17 16 15 14 13 12 11 10 9 9 8 8 6 6 5 4 4 4 4 4 4 4 4 5 5 4 5 5 5 6 6 6 5 5 4 3 4 6 6 6 6 5 4 3 3 3 3 3 2 2 2 2 2 2 3 4
18 20 20 23 27 30 30 31 32 32 32 31 31 31 31 30 29 28 27 25 25 25 24 23 23 22 21 21 20 20 19 18 16 15 13 12 10 9 8 8 8 7 6 5 4 4 4 4 4 3 4 4 5 5 4 5 5 6 6 6 5 5 5 4 3 3 5 5 6 6 5 4 3 2 2 2 2 1 1 1 1 1 2 3 4
18 19 20 22 26 29 31 31 32 33 33 33 32 32 32 31 30 29 28 27 25 25 25 25 24 24 24 23 23 22 21 20 18 16 14 12 11 10 9 8 8 7 7 6 4 4 4 4 4 3 3 4 4 4 4 5 5 6 6 5 5 4 4 4 3 3 4 4 5 6 5 4 2 2 1 1 1 1 1 1 1 2 2 3 4
17 19 20 21 23 26 29 31 32 32 32 33 33 33 32 31 31 30 29 28 27 26 25 26 26 25 25 24 23 23 22 20 18 16 14 13 12 11 10 9 8 8 7 7 6 5 5 4 4 4 4 4 4 4 5 5 5 5 5 5 4 4 4 4 3 3 3 4 4 4 4 3 3 2 1 1 1 2 2 1 1 1 2 2 3
17 19 22 22 23 24 27 30 31 31 31 32 33 33 33 32 31 31 31 30 29 28 27 27 27 27 26 25 24 22 21 19 17 16 16 15 14 13 12 11 10 9 8 8 7 6 6 5 4 4 4 4 3 3 4 4 4 4 4 4 4 4 4 4 4 4 4 4 4 3 3 3 3 2 2 2 2 3 3 3 3 3 2 2 3
18 19 22 24 23 23 24 27 30 31 32 32 33 33 33 32 32 32 31 31 31 30 29 29 28 27 26 26 25 24 22 20 19 18 18 17 16 15 14 13 12 11 10 9 8 7 7 6 5 5 4 4 3 3 3 3 3 3 3 4 5 5 4 4 4 4 4 4 5 4 3 3 3 2 2 3 3 3 4 4 4 4 4 3 3
20 19 21 24 24 22 21 24 28 31 32 31 32 33 33 33 32 32 32 32 32 32 30 30 29 28 27 27 26 25 23 22 22 21 21 19 18 16 15 14 13 12 11 10 9 8 7 7 6 5 5 4 3 3 3 2 2 2 3 4 5 5 5 4 4 4 4 4 4 5 4 3 3 3 3 4 4 4 4 4 4 5 5 4 3
21 21 21 22 23 22 21 22 25 29 32 32 32 33 33 33 32 32 33 33 33 33 32 31 30 29 29 28 27 26 25 25 24 24 23 22 20 19 17 16 14 13 13 11 10 9 9 8 7 6 5 5 4 3 2 2 1 1 2 2 3 4 5 4 4 4 4 4 4 5 4 3 3 3 4 4 5 5 5 6 5 4 4 4 4
21 21 22 22 23 24 24 23 23 26 31 33 33 33 33 33 32 32 32 33 34 33 33 32 32 31 30 29 28 27 27 26 26 26 25 23 22 21 19 18 16 15 14 13 11 10 10 9 8 7 6 5 5 5 4 3 2 1 1 2 2 3 4 4 4 4 3 4 4 5 5 5 4 3 4 4 5 5 6 7 7 6 5 5 6
21 21 22 24 24 25 26 25 24 25 29 31 32 33 32 32 32 32 32 33 33 33 34 33 33 32 31 30 29 28 28 28 27 26 26 25 23 22 21 19 18 16 15 14 13 12 11 10 9 8 7 6 6 6 6 5 4 3 3 2 2 3 3 3 4 4 3 3 3 4 4 5 4 4 4 4 4 4 5 6 7 7 7 7 6
23 21 22 25 25 25 26 26 25 24 26 28 30 31 32 32 32 32 32 31 31 32 33 34 33 33 31 30 29 29 28 28 28 27 27 26 25 24 23 21 19 17 16 15 14 13 12 11 10 9 8 7 7 8 8 7 6 5 5 4 4 4 3 3 3 3 3 2 2 3 3 3 4 4 4 4 4 4 4 5 5 6 6 7 7
26 23 22 24 25 25 26 26 25 24 24 25 28 30 31 32 32 32 32 31 31 31 32 33 33 32 31 30 30 29 29 28 28 28 28 27 27 26 24 23 21 19 18 17 17 16 14 13 12 11 10 9 8 9 9 9 9 7 7 6 6 5 4 4 4 3 3 2 2 2 3 3 3 4 4 4 4 4 4 4 4 5 6 6 7
27 26 24 22 24 25 26 28 27 26 25 25 26 29 30 31 31 32 32 31 31 31 31 32 32 32 31 31 31 30 29 29 28 29 29 29 28 27 26 25 23 22 20 20 19 18 17 16 14 13 12 11 10 10 10 11 11 10 9 8 7 7 6 6 5 5 4 3 2 2 2 2 2 3 4 4 4 4 4 4 4 4 5 6 7
28 27 25 23 24 26 27 28 29 28 27 26 25 27 28 29 30 30 31 31 31 31 31 31 31 31 31 31 30 30 30 29 29 29 29 29 29 28 27 26 25 24 23 22 21 21 19 17 16 15 14 13 12 12 12 12 13 12 11 10 9 8 7 7 7 6 5 4 3 3 2 2 2 2 3 3 3 4 3 3 4 4 4 5 6
30 28 25 24 25 27 28 29 30 30 29 28 26 26 27 27 28 29 30 30 31 31 31 31 31 30 30 30 30 30 30 29 29 28 29 29 29 29 28 27 27 26 25 24 24 23 21 19 18 17 16 15 14 14 14 14 14 14 13 12 11 10 9 9 8 7 7 5 4 4 4 2 2 1 1 1 1 2 2 3 3 3 3 3 4
30 28 25 24 25 27 28 29 30 31 29 29 28 27 26 27 27 28 29 29 29 30 31 32 31 30 29 30 30 30 29 29 28 28 28 29 30 29 29 28 28 28 27 26 26 24 22 20 20 19 18 17 16 16 16 16 16 16 15 14 13 13 11 11 10 10 9 8 6 5 5 5 4 3 2 1 0 0 1 1 1 1 1 1 2
31 28 25 24 25 27 29 29 30 30 30 30 30 29 28 27 26 27 28 29 29 30 31 32 32 31 30 30 30 30 30 29 29 29 29 30 30 30 29 29 28 29 28 28 27 25 23 22 21 20 19 19 18 17 17 17 17 17 16 16 15 15 14 13 13 12 11 10 8 8 7 7 6 5 5 3 2 2 2 2 2 2 2 1 1
32 29 26 24 23 26 29 30 31 31 31 32 32 31 30 28 27 27 28 29 29 29 30 31 32 32 31 31 30 30 31 31 30 30 30 30 29 29 29 29 29 30 30 29 28 27 25 23 22 22 21 20 19 18 18 18 18 17 17 17 17 17 16 15 15 14 13 12 11 10 10 10 9 8 7 6 5 5 5 4 5 4 4 4 4
33 29 26 24 22 24 29 31 31 32 32 33 33 32 31 30 29 28 28 29 29 29 29 30 31 32 32 31 31 30 31 31 32 31 30 30 29 29 30 30 31 31 30 30 29 28 26 25 24 23 22 20 20 19 19 19 19 18 18 18 19 18 18 17 17 16 15 14 13 13 13 12 12 11 10 9 7 7 7 7 7 7 7 7 7
33 30 27 24 22 24 29 32 33 33 34 35 34 33 32 32 31 30 30 29 29 29 29 29 30 30 31 31 31 31 31 31 32 32 30 30 29 30 30 31 31 31 31 31 30 29 28 26 25 24 23 21 21 20 19 19 19 18 17 18 19 20 19 19 19 18 17 17 16 15 15 15 14 13 12 11 10 9 9 9 9 9 9 9 10
32 30 27 24 23 24 29 34 35 34 35 35 34 34 34 33 33 32 31 30 30 29 29 28 29 29 29 30 31 32 32 32 32 32 31 30 30 30 30 31 31 31 31 31 31 30 29 27 27 25 24 22 21 20 20 20 18 17 17 18 20 20 21 20 20 19 19 19 18 17 17 17 17 16 15 14 13 12 12 12 12 11 12 13 13
32 30 26 23 24 25 29 35 36 35 35 35 35 34 34 34 34 33 32 31 31 31 30 29 28 28 29 30 31 32 32 32 32 32 31 30 30 29 29 30 31 31 31 31 31 30 29 28 27 26 24 23 21 21 21 20 19 18 18 18 20 21 21 21 21 20 20 20 19 18 18 19 18 17 17 16 15 14 14 15 14 14 15 16 17
32 29 25 24 26 26 29 35 37 36 36 36 35 34 34 34 34 33 32 32 32 32 32 30 29 29 30 30 31 31 32 32 32 32 31 31 30 30 29 30 31 31 31 30 30 30 29 28 27 26 24 23 22 21 21 21 20 19 19 19 20 21 22 22 22 21 21 20 20 19 19 19 20 18 18 17 17 16 16 17 17 17 18 18 20
29 29 26 26 27 26 28 35 37 37 37 37 35 34 34 34 34 34 33 33 33 33 33 32 31 30 30 30 31 32 32 31 32 32 32 32 31 31 29 29 30 30 30 30 30 29 28 27 26 26 25 23 23 22 21 21 21 20 20 20 21 22 22 23 22 22 21 21 20 19 19 19 20 19 18 18 18 18 18 18 18 19 20 20 21
26 28 28 29 28 25 26 33 37 37 38 38 36 34 34 34 34 34 34 33 33 33 33 32 31 31 31 31 31 32 32 31 31 31 32 32 32 32 30 29 29 30 30 29 29 29 28 28 27 27 26 25 24 23 22 22 22 22 20 21 22 22 23 23 23 22 21 21 20 19 18 19 19 18 18 18 18 18 18 17 17 18 19 20 21
25 27 28 28 28 25 23 28 35 38 38 37 36 35 34 34 34 34 35 34 33 33 33 32 32 32 31 30 30 31 31 30 30 31 31 32 33 32 31 30 30 30 29 29 29 29 29 29 28 28 27 26 25 24 24 23 23 23 21 21 22 23 23 23 22 21 21 21 19 19 18 18 18 17 17 17 17 16 16 15 16 17 18 19 20
19 23 26 26 26 26 24 24 30 37 39 38 37 37 35 35 35 35 35 35 34 34 34 33 32 32 31 30 30 31 31 31 31 31 31 31 32 32 32 31 30 30 29 28 28 28 28 29 29 29 29 28 27 26 25 23 23 23 22 21 22 23 24 23 23 22 22 21 19 19 18 18 17 17 17 16 15 14 14 15 15 17 18 19 20
12 16 21 24 24 25 26 24 25 30 36 39 39 38 36 35 36 36 35 35 35 35 34 33 32 31 31 30 29 30 31 31 31 30 30 30 30 31 32 31 31 31 30 29 28 28 28 28 28 29 29 29 28 27 25 23 23 22 22 22 22 24 25 24 24 23 23 21 20 19 19 18 18 17 16 15 15 14 15 15 16 18 20 21 21
10 12 17 22 23 24 26 26 25 26 31 37 39 38 36 36 36 36 36 35 35 34 34 33 32 31 31 30 29 29 30 31 31 30 29 29 29 30 31 31 31 31 31 31 29 29 28 27 27 28 28 28 28 27 25 24 23 23 23 23 22 24 25 25 25 24 23 22 21 20 20 19 18 18 17 16 15 16 16 17 18 20 22 22 22
12 13 15 20 24 26 27 28 27 26 27 33 38 38 36 36 36 35 36 36 35 35 34 34 33 32 31 30 28 28 28 30 31 31 30 29 29 29 29 29 29 30 31 31 30 30 29 28 28 28 27 27 27 26 25 24 24 23 23 23 23 24 26 26 26 25 24 23 22 22 21 21 20 19 18 17 17 18 19 19 21 22 23 23 23
14 15 17 19 22 26 29 29 29 29 27 30 36 39 36 34 35 35 35 36 36 35 35 35 33 31 31 30 29 28 28 28 30 30 30 30 30 29 28 28 28 28 29 30 30 30 29 29 28 28 27 26 25 24 24 24 24 24 24 24 24 24 26 27 27 27 26 25 24 24 23 22 21 20 20 20 20 20 21 22 23 24 23 22 22
16 18 20 21 23 26 31 32 31 31 29 28 32 38 36 34 35 35 35 36 36 36 36 36 33 30 28 29 30 29 28 28 28 29 30 31 30 30 29 28 28 28 28 29 29 29 29 29 29 28 26 25 24 23 22 23 23 24 24 25 24 25 26 28 29 28 28 27 26 26 25 24 23 23 23 22 22 22 23 24 24 24 23 22 21
16 18 21 24 27 29 32 34 33 33 33 30 30 35 36 35 35 36 36 37 37 37 37 36 33 29 27 28 29 30 29 29 28 28 29 30 30 30 30 29 29 29 28 28 29 29 29 29 29 28 27 25 24 22 21 22 23 23 24 25 26 26 27 28 30 30 30 29 29 28 27 26 25 25 24 24 23 24 25 26 25 24 23 22 22
16 17 20 24 29 32 34 35 35 34 34 32 31 34 35 34 36 37 37 38 38 38 38 36 33 30 28 29 29 29 29 29 29 29 29 29 30 31 31 30 30 30 30 29 29 29 29 29 29 28 27 26 24 22 21 21 23 23 24 25 26 27 28 29 30 30 31 31 30 30 29 28 27 27 26 25 24 25 27 27 26 24 24 23 24
18 18 19 24 30 34 35 37 37 36 35 33 33 33 32 33 37 38 38 39 40 40 38 36 33 31 30 30 31 31 30 29 28 28 29 30 30 31 31 31 30 30 31 30 29 29 29 29 28 28 28 26 24 23 22 22 23 25 25 26 26 28 29 29 29 30 31 31 31 31 31 30 29 28 27 26 26 27 28 28 27 26 25 25 25
20 18 19 27 33 36 38 39 39 39 37 36 35 33 30 32 37 39 39 40 41 40 38 35 33 33 31 32 33 32 31 30 28 27 28 29 29 30 30 30 31 31 31 30 29 29 29 29 28 29 29 27 25 25 24 24 25 26 27 27 27 28 29 29 29 30 31 32 32 32 32 31 30 29 27 26 27 28 29 29 28 27 27 27 27
22 19 21 29 36 39 41 42 42 42 40 38 37 34 31 32 37 39 40 41 41 39 37 35 34 34 33 33 33 33 32 31 29 28 28 29 29 29 29 30 31 31 31 30 29 29 29 29 29 30 29 28 27 27 27 26 27 28 28 29 29 29 30 29 29 29 30 31 32 32 32 31 30 29 28 27 28 29 30 30 29 28 28 28 28
25 23 22 27 33 40 43 44 44 44 42 40 39 36 32 32 36 39 40 41 40 38 36 35 35 35 34 33 33 33 32 31 30 28 29 30 30 30 29 30 30 30 30 29 29 28 28 29 29 29 29 28 28 29 28 28 28 29 30 31 31 32 31 30 29 29 30 31 31 31 31 31 30 30 29 28 29 30 31 31 30 30 29 30 31
24 22 21 24 28 35 41 43 46 46 44 42 41 38 33 32 35 38 39 39 38 37 36 36 35 34 33 32 33 33 34 33 31 29 29 29 28 28 28 29 29 29 29 28 28 28 28 28 28 28 29 29 29 29 29 29 29 31 32 33 34 34 33 31 31 31 31 31 31 31 31 31 30 31 31 30 30 31 32 32 31 31 31 32 34
20 18 19 22 25 30 36 42 46 47 45 44 43 37 32 31 33 36 37 38 38 37 36 36 35 34 32 32 33 33 34 34 33 32 30 29 28 27 27 27 27 27 27 27 27 26 27 27 27 28 29 29 29 29 30 29 30 32 33 34 35 35 34 33 33 33 33 33 33 32 32 31 31 32 32 32 31 32 32 32 32 32 33 35 36
17 16 20 23 26 30 34 38 41 44 45 44 40 34 30 30 32 35 38 39 38 37 35 35 35 34 33 33 33 33 33 33 33 33 32 31 30 30 29 28 28 28 28 28 27 27 27 27 27 28 28 29 29 29 29 30 30 32 34 35 35 35 35 34 34 34 34 34 34 33 33 33 33 33 33 33 32 33 33 33 34 35 36 37 38
15 17 20 24 27 32 35 36 37 39 41 38 34 30 30 31 34 38 41 40 38 36 35 34 34 34 33 33 32 32 32 33 33 33 33 33 33 32 32 31 31 32 32 31 30 30 29 29 29 29 29 29 28 28 28 29 30 31 33 34 34 35 35 35 35 35 35 35 35 35 35 34 34 34 33 33 33 34 34 35 36 37 38 39 39
15 18 21 25 27 30 33 34 34 36 35 32 31 31 32 35 39 41 41 40 38 35 34 34 34 34 34 33 32 32 32 32 33 33 34 34 34 34 34 34 34 34 34 33 33 33 32 32 31 31 30 29 28 27 28 29 29 30 31 32 33 34 35 35 35 35 35 36 36 36 36 35 34 34 34 34 34 34 36 37 38 39 40 40 41
16 19 23 26 28 30 31 32 33 34 34 32 32 33 37 40 42 42 41 39 37 35 34 35 34 33 32 32 31 31 32 32 32 32 33 33 34 34 34 34 34 34 34 34 34 34 34 33 32 32 31 29 29 29 29 29 29 29 30 31 32 33 33 34 35 35 35 36 36 35 34 33 33 33 34 34 35 36 37 38 39 40 41 42 42
17 20 24 27 29 31 32 32 33 34 35 35 35 38 42 43 42 41 40 38 36 36 35 34 32 30 29 29 29 29 29 29 29 30 31 31 32 32 32 32 32 32 33 33 33 33 33 33 33 32 31 31 30 31 31 31 31 31 31 30 31 31 32 32 33 33 34 34 34 33 32 32 33 34 34 35 36 37 38 39 41 41 41 41 40
17 21 25 27 29 31 33 34 36 37 37 38 40 43 44 43 42 41 40 38 37 35 33 30 28 27 26 26 26 26 27 27 27 27 28 28 29 29 30 29 30 30 30 30 30 30 30 30 29 29 29 29 29 30 31 32 32 31 31 32 32 32 32 32 33 32 33 33 32 32 32 33 34 35 36 37 38 39 39 40 41 40 38 37 35
15 18 25 28 29 31 35 37 38 40 40 42 45 46 45 44 43 41 39 37 36 33 30 29 27 26 26 26 26 26 27 27 27 26 26 27 27 27 27 27 27 28 28 27 27 27 27 26 26 26 26 27 27 27 28 29 29 29 30 31 32 32 32 33 33 33 33 33 33 33 34 35 36 36 37 38 38 38 38 38 37 35 34 32 31
17 16 22 28 30 31 36 38 39 42 44 46 47 47 46 45 43 41 39 36 34 32 31 30 28 27 26 26 26 27 27 26 26 25 24 23 23 23 23 24 24 24 24 25 25 25 25 25 24 25 26 27 26 26 27 27 28 28 29 28 28 29 29 30 31 31 32 32 33 34 34 35 36 36 36 36 36 36 36 34 32 32 31 29 30
22 17 18 25 29 32 35 38 40 43 46 48 47 46 46 45 43 41 39 36 33 33 31 29 28 27 26 26 26 26 25 25 24 22 20 20 21 21 21 22 22 21 21 22 23 24 25 26 26 25 26 27 27 27 27 27 27 28 28 28 27 28 28 28 29 30 30 31 31 32 32 33 33 33 33 33 32 33 32 29 29 31 32 31 32
Wind_Direction
205 207 205 201 196 194 195 197 197 199 199 200 200 200 198 197 196 194 194 195 194 193 192 190 189 186 184 184 183 182 178 177 177 173 170 167 168 170 166 162 159 154 145 137 129 126 128 115 102 101 97 89 83 78 79 84 89 90 81 72 73 85 93 92 97 104 108 118 127 128 125 118 101 87 79 66 58 57 55 51 40 34 28 19 26
209 208 208 205 200 197 197 199 200 201 201 201 201 201 200 199 199 197 197 197 196 197 196 193 192 188 186 186 188 189 185 183 184 182 179 174 172 174 174 169 167 162 148 139 140 147 148 130 112 106 102 95 89 84 86 90 92 89 76 68 73 86 93 89 92 97 100 110 119 119 116 110 98 88 80 67 64 60 58 63 49 36 24 16 20
212 211 211 208 204 201 200 200 201 203 204 204 202 202 201 201 202 200 200 198 198 199 198 196 195 192 190 190 192 194 192 190 189 188 187 182 178 179 179 175 173 167 156 151 155 165 165 146 126 112 106 102 92 87 92 97 95 85 70 62 65 75 84 85 90 99 102 107 111 107 102 97 82 73 73 67 72 67 46 65 63 41 22 17 19
215 212 212 211 207 205 204 202 202 203 205 205 205 204 204 203 203 203 203 201 199 200 200 199 199 197 196 195 196 197 196 194 192 191 193 190 186 185 184 182 182 176 169 171 170 176 181 165 145 126 113 104 95 92 94 96 92 86 74 63 62 68 75 79 90 109 113 113 111 108 104 98 81 65 71 63 63 63 27 40 39 7 23 23 17
220 215 213 214 211 209 208 205 204 205 206 207 207 206 206 206 205 205 206 205 202 201 201 203 202 202 201 200 200 200 198 197 194 193 196 196 195 196 195 193 191 186 181 185 188 191 193 182 169 153 130 114 101 93 91 92 92 88 83 74 70 76 82 84 94 111 119 121 120 118 116 120 114 86 77 63 47 33 9 25 11 354 15 25 20
223 219 217 217 217 214 212 210 208 207 207 208 208 209 209 209 207 206 207 207 206 204 203 205 205 205 205 204 203 202 200 198 196 194 199 201 203 205 205 205 202 196 192 194 199 204 206 196 186 175 151 132 114 96 90 94 95 92 89 83 82 93 101 99 101 110 120 127 129 125 123 135 143 135 123 77 45 31 26 38 43 27 28 29 23
222 220 218 217 218 218 217 214 212 211 209 208 210 211 211 211 210 208 208 208 208 207 206 207 207 207 208 207 207 206 203 201 199 200 203 204 207 208 208 210 209 206 203 201 204 210 214 208 197 189 172 154 133 105 97 99 98 101 100 96 95 101 108 104 102 110 116 124 133 135 128 135 145 143 135 95 66 53 49 47 40 40 47 50 47
222 220 218 216 216 219 220 218 216 215 212 210 211 212 212 213 212 210 210 210 210 209 209 209 209 208 209 210 209 208 205 203 203 205 207 207 210 211 211 212 211 211 210 207 208 212 215 215 208 199 190 177 156 118 108 107 103 110 112 108 107 107 111 109 106 109 111 117 132 139 131 129 136 122 103 88 78 64 61 60 54 53 56 63 70
224 222 220 218 217 217 219 220 218 217 216 215 213 213 213 213 213 212 212 212 213 212 211 211 211 210 210 212 211 209 207 206 206 208 209 209 210 213 214 214 213 214 214 211 209 210 214 217 214 209 203 197 184 151 130 121 106 111 119 122 119 116 116 117 117 117 112 114 126 133 127 116 114 107 97 91 87 81 78 79 80 74 70 76 86
224 223 221 220 220 219 219 220 219 218 219 219 216 215 214 213 213 213 213 213 214 214 213 213 213 213 212 213 212 210 209 209 209 210 210 210 211 213 214 215 215 215 216 215 211 208 213 215 216 216 215 212 208 196 173 155 134 118 129 136 128 123 125 128 132 126 119 117 115 117 116 101 89 90 95 95 92 94 95 94 93 84 76 82 91
222 221 221 220 220 220 220 220 219 218 219 220 219 218 217 215 214 214 214 214 215 215 215 215 215 215 215 214 214 212 212 213 213 213 213 213 214 214 214 216 216 214 214 215 212 210 212 213 215 217 220 223 224 220 208 192 194 205 181 168 151 142 141 142 141 135 130 122 110 105 102 94 83 70 76 87 89 89 92 96 97 96 96 95 93
218 219 221 219 218 218 218 218 219 218 220 220 221 220 219 217 215 214 215 215 216 216 215 216 217 217 216 215 215 215 215 215 216 216 216 217 217 217 217 217 217 215 212 213 213 213 213 214 216 217 220 227 230 227 220 210 209 219 220 211 199 182 168 159 151 147 151 136 110 101 93 90 91 80 73 76 80 82 82 86 93 98 98 94 90
219 221 223 220 217 216 215 217 218 218 220 220 220 221 220 219 217 216 216 216 216 216 216 217 218 219 218 216 216 217 217 217 218 218 218 218 218 218 217 218 219 217 213 212 214 215 214 216 219 220 222 228 233 231 226 219 215 219 225 223 218 211 202 191 173 166 173 163 123 105 92 83 83 83 77 73 74 80 79 79 84 91 92 91 91
224 225 226 223 217 215 215 217 219 219 220 220 219 219 220 219 217 217 217 217 216 216 216 217 218 219 219 218 217 217 217 218 219 220 219 219 219 219 218 218 219 218 214 212 213 215 215 216 220 223 226 230 236 235 230 224 219 219 223 225 223 219 216 216 210 200 195 188 171 130 113 93 70 71 72 66 63 66 71 74 76 79 82 84 86
229 227 227 225 217 215 215 216 219 220 220 221 220 219 219 218 217 217 218 217 216 216 216 217 218 219 219 219 218 217 218 218 219 220 221 221 220 220 219 218 219 218 216 213 213 215 216 217 220 223 227 231 236 240 236 230 225 222 223 224 225 224 221 225 226 221 218 210 203 179 142 125 89 73 71 63 57 57 59 62 67 69 74 76 77
229 229 226 224 218 214 214 216 219 220 220 221 221 220 219 218 217 218 219 219 218 217 217 217 217 218 218 218 218 217 217 218 219 220 222 223 222 222 221 219 219 219 217 215 214 215 216 218 220 223 228 232 237 241 240 236 231 227 226 226 228 228 225 227 231 231 232 225 216 221 210 166 128 96 85 75 62 58 53 52 60 60 63 69 71
227 228 225 224 221 218 216 216 218 219 219 220 220 220 219 218 218 217 218 219 219 219 218 218 218 218 217 217 217 217 217 217 218 219 221 223 223 223 222 219 219 219 218 216 217 217 217 219 221 224 230 235 238 241 242 241 237 232 230 228 230 231 228 227 230 232 235 231 223 229 238 232 219 187 107 95 68 58 60 57 59 59 57 61 60
227 227 226 228 226 222 220 219 220 220 219 219 220 220 220 219 218 218 218 219 219 219 219 219 219 219 218 217 216 216 216 216 217 217 219 221 222 222 222 219 218 219 219 219 219 219 218 220 222 226 231 236 239 242 243 243 240 237 234 231 231 233 231 229 229 232 233 230 228 232 239 243 242 245 245 218 219 15 54 42 37 49 58 53 36
227 227 227 230 229 225 222 221 222 222 219 218 219 220 221 219 217 217 218 220 221 221 221 221 220 220 219 217 217 216 215 215 216 216 216 219 220 221 221 219 219 220 221 221 222 221 220 221 223 227 232 237 240 243 246 245 243 240 237 234 233 232 232 230 229 231 233 230 229 234 240 245 246 247 251 247 247 261 274 281 284 280 272 265 261
227 227 227 230 231 227 223 222 223 223 219 217 217 218 219 220 219 217 217 219 221 221 223 223 222 222 220 218 217 217 216 216 217 217 217 218 219 219 220 219 218 220 222 223 224 224 223 223 225 228 232 236 240 244 246 246 245 242 239 237 236 234 232 230 229 230 231 230 230 234 239 245 248 249 250 252 253 257 262 266 270 272 272 271 262
226 227 226 229 230 226 224 222 223 224 221 218 217 217 217 218 219 219 219 218 218 219 221 222 223 223 222 221 219 218 217 217 217 218 218 218 219 218 218 218 218 220 222 224 226 226 226 225 227 231 233 236 240 243 245 247 247 245 241 238 238 237 234 231 230 229 230 230 229 232 237 241 246 249 251 253 254 256 258 260 264 268 270 271 270
225 225 225 228 226 221 222 223 222 224 222 218 217 216 215 216 217 219 220 219 218 218 219 220 221 223 223 222 221 219 219 218 218 219 219 218 218 218 218 218 218 220 222 224 226 228 228 228 230 234 236 237 239 241 244 246 247 247 243 239 237 237 236 234 231 230 230 230 229 230 235 239 242 247 251 253 254 256 259 261 263 266 269 271 271
224 222 224 229 225 216 218 221 223 224 222 220 218 216 214 214 215 217 220 221 220 220 220 220 221 222 223 222 222 221 220 219 219 220 219 218 219 219 219 219 219 220 222 225 227 229 230 230 232 235 236 237 238 240 244 246 247 247 244 239 236 234 235 234 232 231 231 230 229 230 233 237 239 243 248 251 252 255 259 262 264 265 269 274 272
221 221 223 229 229 220 215 218 221 223 223 222 220 216 214 213 214 216 218 220 221 221 222 222 222 223 223 223 223 222 220 220 220 221 220 218 219 220 220 219 219 220 222 224 227 229 231 232 233 235 236 236 238 241 245 247 247 245 243 239 235 232 232 233 233 233 232 232 231 231 233 237 239 241 245 249 251 254 258 262 265 266 268 273 274
218 218 221 228 232 227 216 214 219 222 223 224 222 218 216 215 215 216 216 218 219 221 223 224 223 223 224 224 224 224 222 221 221 222 221 219 220 221 221 220 219 221 222 224 226 228 230 232 233 236 237 239 242 244 245 247 246 244 241 239 236 233 231 231 232 233 234 234 233 232 233 236 239 241 244 248 251 254 257 261 264 267 269 271 274
216 217 223 231 234 230 216 212 216 221 223 224 224 221 219 217 216 215 215 216 218 220 223 224 224 224 225 225 224 224 224 222 221 222 221 221 221 222 222 221 221 222 223 224 226 228 230 233 235 238 240 242 246 247 246 245 245 243 240 238 237 234 232 231 232 233 234 235 234 233 233 235 238 240 243 247 249 252 255 259 263 267 269 271 274
216 219 226 231 231 229 219 210 212 217 222 224 225 224 222 220 218 216 216 216 217 219 222 224 224 225 226 226 225 225 225 223 221 222 222 221 221 222 223 222 222 223 225 225 226 229 231 234 236 239 243 245 246 247 245 243 243 243 241 238 237 235 234 233 232 233 234 234 232 231 230 232 234 237 240 243 246 249 253 257 261 265 268 273 277
222 222 225 229 228 227 222 211 207 210 216 221 224 225 224 222 221 219 217 216 216 218 222 224 225 225 227 227 226 225 225 223 222 222 222 222 222 223 224 223 223 225 226 227 228 229 232 235 237 239 242 245 245 245 244 241 241 243 242 240 237 235 234 234 233 232 231 230 229 227 227 227 228 229 231 235 240 246 251 255 261 266 271 276 280
229 227 226 227 226 224 221 216 209 207 210 216 220 221 222 223 222 221 219 218 217 218 221 223 225 226 227 227 227 226 224 222 222 222 222 223 222 223 224 224 224 225 227 228 228 229 231 234 236 238 240 242 243 243 242 241 240 242 243 242 238 235 234 234 233 230 229 227 224 222 220 219 219 219 222 227 234 242 250 257 264 270 275 279 283
231 233 229 227 229 226 222 221 217 210 209 212 216 219 220 222 223 222 220 219 218 218 220 223 226 226 226 226 226 226 223 222 222 222 222 223 222 223 224 225 225 225 227 228 229 230 231 232 234 236 237 239 241 241 242 241 240 240 241 242 239 235 234 234 231 228 226 224 219 214 213 213 214 216 220 227 235 244 253 261 268 273 277 281 284
228 233 232 231 232 230 226 224 220 216 211 210 214 218 218 219 221 221 220 219 218 219 220 223 226 226 225 224 224 225 223 221 221 222 222 222 223 223 224 226 226 226 227 229 230 231 232 233 235 236 237 238 240 241 241 240 239 237 238 240 239 234 233 232 229 224 222 219 214 210 211 214 217 220 225 232 239 248 257 263 270 275 278 281 283
225 224 227 231 231 229 228 225 221 219 215 211 212 214 214 215 218 219 218 216 217 217 218 221 224 226 224 222 221 222 221 220 220 220 221 222 223 224 224 225 226 226 227 229 231 232 233 235 236 236 237 238 239 240 239 238 238 236 235 238 238 234 232 230 226 222 218 216 214 212 214 218 222 225 230 237 244 251 259 265 269 273 276 279 281
228 223 222 227 231 231 228 224 223 223 220 215 212 212 212 213 215 217 216 213 214 215 216 218 222 225 224 221 219 219 219 219 218 219 220 221 223 224 224 225 226 226 227 228 230 231 233 234 236 236 237 238 239 239 237 235 235 234 233 236 236 233 231 229 226 221 217 217 217 217 219 222 226 229 233 240 247 253 259 264 269 272 275 276 278
237 227 223 226 230 230 226 222 224 224 222 219 214 211 210 209 210 212 212 210 211 212 213 216 219 222 223 221 219 219 218 217 216 217 218 220 222 224 224 225 226 226 226 227 228 230 231 232 234 235 235 236 237 237 234 232 232 232 232 233 235 234 231 229 227 223 220 220 220 221 223 226 229 233 236 242 249 256 262 265 268 271 273 273 274
245 234 231 232 230 227 224 222 223 224 224 223 216 209 206 204 205 209 210 209 208 208 211 214 216 217 217 218 218 218 217 216 215 215 216 217 220 222 223 224 225 226 226 226 227 229 230 231 232 233 233 233 234 234 230 228 228 230 232 232 233 233 232 230 229 227 224 224 224 225 227 228 232 236 240 245 251 258 265 268 270 271 270 269 272
251 247 244 237 228 224 223 222 223 225 226 225 218 209 205 203 205 208 209 207 206 206 209 213 214 213 213 214 215 215 216 216 216 216 216 216 218 220 221 222 224 225 226 226 226 227 228 229 230 231 231 230 230 230 227 224 225 228 232 233 234 234 234 233 232 231 230 229 228 228 230 231 234 238 242 247 253 260 264 268 271 271 271 272 275
259 262 251 233 225 223 222 221 222 224 225 226 221 213 209 205 205 207 208 206 204 205 208 212 212 212 213 214 214 215 214 214 215 215 216 217 218 219 220 221 222 224 225 224 224 226 228 229 229 230 231 229 228 228 226 223 223 227 232 234 235 236 237 236 235 234 234 234 233 232 233 235 237 239 242 247 254 259 264 268 270 271 272 274 278
267 269 250 230 224 222 220 219 221 223 225 225 222 217 212 208 206 207 208 206 203 204 208 210 211 213 214 214 215 217 216 215 215 217 218 219 219 220 220 221 222 224 225 225 224 226 228 229 229 230 230 229 228 227 226 224 224 227 231 235 237 238 238 237 236 236 236 236 236 235 236 238 238 240 243 248 253 258 262 266 269 270 271 274 279
269 270 253 234 226 223 221 219 218 219 222 223 221 219 216 210 207 207 207 205 203 203 206 208 211 214 216 217 218 219 219 219 218 219 220 221 222 222 222 222 223 224 226 225 225 226 227 228 229 229 230 229 228 227 226 224 225 227 231 234 237 239 239 239 238 237 237 237 237 236 237 239 240 242 244 248 252 255 259 263 265 267 269 273 279
270 270 256 236 225 223 221 217 214 214 217 219 219 219 216 211 208 208 206 203 202 202 203 206 211 216 219 221 221 222 222 221 219 219 220 221 222 223 222 222 223 224 226 226 225 225 226 227 228 229 229 228 228 228 226 224 226 229 231 234 237 239 239 240 239 239 239 238 237 237 238 239 242 245 247 248 250 253 257 260 262 264 268 273 277
271 264 245 228 222 221 219 215 212 212 213 216 219 219 215 212 211 209 205 201 199 199 200 204 211 216 219 220 221 222 223 222 219 217 217 217 217 218 218 219 220 222 223 224 224 223 224 225 227 228 229 228 227 227 227 225 226 229 231 234 237 238 239 240 240 240 239 239 239 239 239 240 243 246 248 249 249 252 256 259 261 264 268 272 275
267 247 223 214 216 216 213 210 209 209 209 214 218 217 213 213 213 208 202 197 196 197 200 206 212 215 217 218 220 222 223 223 221 218 216 214 213 212 213 213 215 217 218 219 220 221 221 222 224 226 227 227 226 226 227 226 226 228 231 233 236 238 239 239 239 239 239 239 239 240 241 242 244 246 249 251 252 254 258 261 264 266 269 272 275
258 227 208 206 209 207 202 199 201 203 205 211 215 214 212 213 209 202 197 194 195 199 203 208 212 215 217 219 221 222 223 223 223 221 220 219 217 217 217 216 216 218 219 219 220 221 221 222 223 224 226 226 225 225 226 227 226 228 231 233 236 238 238 238 239 239 239 239 240 241 242 243 244 247 250 253 256 258 261 264 266 268 271 274 278
245 217 202 202 204 201 195 191 192 197 202 207 208 208 209 207 200 195 193 194 198 203 206 209 211 214 216 219 221 223 224 224 225 224 224 224 223 223 223 223 223 225 225 225 224 225 225 224 224 224 225 226 225 224 225 226 227 228 230 232 235 238 239 239 240 240 240 241 241 242 243 244 246 249 252 255 258 260 263 266 269 271 274 277 280
232 210 198 197 196 194 192 189 189 194 198 199 200 202 201 195 191 191 193 197 202 204 205 208 210 213 215 218 221 223 224 225 226 226 227 228 227 227 227 227 227 227 227 227 227 226 226 226 225 226 226 227 226 225 225 226 227 228 230 232 234 237 239 240 241 242 242 243 243 244 246 248 250 253 255 258 260 263 266 268 271 274 277 280 282
220 205 197 193 189 187 187 187 189 194 196 195 196 196 192 187 188 191 195 199 203 203 204 207 209 212 214 216 219 222 224 225 226 227 229 229 230 230 230 229 229 229 229 229 229 229 229 228 228 228 228 229 229 228 227 228 228 229 230 231 233 236 238 241 242 243 244 245 246 248 250 253 256 258 260 262 264 266 269 272 275 278 280 281 282
213 203 195 190 187 185 186 187 188 191 195 196 194 191 188 187 189 192 195 198 200 202 205 207 208 210 212 213 216 219 222 224 225 226 228 229 229 230 229 229 229 229 229 230 230 231 231 231 231 231 231 232 233 233 233 233 233 234 234 234 235 236 238 241 244 246 247 249 250 252 255 257 259 261 263 265 268 270 272 274 276 278 279 280 280
210 202 195 189 184 183 183 185 188 189 191 193 190 187 187 187 188 190 193 195 198 201 202 202 202 204 207 208 211 215 217 219 222 224 226 227 228 229 229 229 229 230 231 231 232 233 234 234 235 235 235 235 236 236 237 238 239 240 241 241 241 241 242 244 246 248 250 251 253 255 256 257 259 262 264 267 269 271 272 273 275 275 275 275 275
197 201 197 188 182 182 181 182 185 188 188 186 185 185 186 186 187 190 192 195 198 197 196 196 198 201 204 206 209 212 214 217 219 222 223 224 226 228 230 231 231 232 233 234 235 236 237 236 236 236 235 235 236 237 239 241 242 244 245 245 246 247 247 248 250 251 253 254 256 257 258 259 260 262 264 265 268 269 270 271 271 272 271 272 273
179 190 199 192 184 182 181 181 183 185 184 183 184 185 186 187 187 189 191 195 196 194 192 193 196 200 205 209 212 214 215 215 216 218 219 219 222 226 228 229 230 231 233 234 235 236 237 236 235 234 234 236 236 237 239 241 243 245 247 248 250 252 252 253 254 255 255 256 256 257 259 260 262 263 265 267 269 271 271 271 271 271 270 268 269
184 182 192 195 190 184 182 182 183 183 183 183 185 187 187 188 188 189 191 193 193 191 192 194 197 203 208 209 208 207 207 207 208 209 209 211 215 219 221 224 226 227 229 232 234 235 236 236 235 233 234 236 236 237 239 242 244 246 248 250 252 254 255 256 256 256 255 255 256 258 260 262 263 265 266 268 270 270 268 266 264 265 265 265 264
Height
3181 3182 3184 3185 3187 3188 3190 3192 3194 3196 3197 3199 3201 3203 3205 3207 3209 3211 3212 3214 3216 3218 3220 3221 3223 3225 3227 3229 3230 3231 3233 3234 3235 3236 3237 3238 3239 3240 3241 3242 3243 3243 3244 3244 3245 3246 3246 3247 3247 3247 3247 3247 3247 3247 3246 3246 3246 3246 3246 3246 3247 3247 3247 3247 3247 3247 3247 3247 3247 3247 3248 3248 3248 3248 3248 3248 3249 3249 3249 3249 3249 3249 3249 3248 3248
3179 3180 3182 3184 3185 3187 3188 3190 3192 3194 3195 3197 3199 3201 3204 3206 3208 3209 3211 3213 3215 3217 3219 3221 3222 3224 3226 3228 3230 3231 3232 3233 3235 3236 3237 3238 3239 3240 3241 3242 3243 3243 3244 3244 3245 3246 3246 3247 3247 3247 3247 3247 3247 3247 3247 3247 3247 3247 3247 3247 3247 3247 3247 3247 3247 3247 3247 3247 3247 3247 3248 3248 3248 3248 3248 3249 3249 3250 3249 3249 3249 3249 3249 3248 3248
3178 3179 3180 3182 3184 3185 3186 3188 3190 3192 3194 3196 3198 3200 3202 3204 3206 3208 3210 3211 3214 3216 3218 3220 3222 3224 3225 3227 3229 3230 3231 3233 3234 3235 3236 3237 3238 3240 3241 3242 3242 3243 3244 3244 3245 3246 3246 3247 3247 3247 3248 3247 3247 3247 3247 3247 3247 3247 3247 3247 3247 3247 3247 3247 3248 3248 3247 3248 3248 3248 3248 3248 3249 3249 3249 3249 3250 3250 3250 3249 3249 3249 3249 3249 3248
3176 3177 3179 3180 3181 3183 3184 3186 3188 3190 3192 3194 3196 3198 3200 3202 3204 3206 3208 3210 3212 3214 3217 3219 3220 3222 3224 3225 3227 3228 3230 3231 3233 3234 3236 3237 3238 3239 3240 3241 3242 3243 3244 3244 3245 3246 3246 3247 3247 3247 3248 3248 3248 3248 3248 3248 3248 3248 3248 3248 3248 3248 3248 3248 3248 3248 3248 3248 3248 3248 3248 3249 3249 3249 3249 3250 3250 3250 3250 3249 3249 3249 3249 3248 3248
3174 3176 3177 3178 3179 3181 3182 3184 3186 3188 3190 3192 3194 3196 3198 3200 3202 3205 3207 3209 3211 3213 3215 3217 3219 3220 3222 3224 3225 3226 3228 3230 3232 3234 3235 3237 3238 3239 3240 3241 3242 3243 3243 3244 3245 3246 3246 3247 3247 3248 3248 3248 3248 3248 3248 3248 3248 3248 3248 3249 3249 3248 3248 3249 3249 3249 3249 3248 3248 3248 3249 3249 3249 3249 3250 3250 3250 3250 3250 3250 3249 3249 3249 3248 3248
3172 3174 3175 3176 3178 3179 3181 3183 3184 3186 3188 3190 3193 3195 3197 3199 3201 3203 3205 3208 3210 3212 3214 3215 3217 3219 3220 3222 3224 3225 3228 3230 3232 3234 3235 3236 3237 3238 3239 3240 3241 3242 3243 3244 3245 3246 3246 3247 3247 3248 3248 3248 3248 3248 3248 3248 3248 3249 3249 3249 3249 3249 3249 3249 3249 3249 3249 3249 3249 3249 3249 3249 3249 3250 3250 3250 3250 3250 3250 3250 3249 3249 3249 3249 3248
3169 3171 3173 3174 3176 3177 3179 3181 3183 3185 3187 3189 3191 3193 3195 3197 3199 3202 3204 3206 3208 3210 3212 3214 3215 3217 3219 3221 3223 3225 3227 3230 3232 3233 3234 3235 3236 3238 3239 3239 3240 3242 3242 3243 3244 3245 3246 3246 3247 3247 3248 3248 3249 3249 3249 3249 3249 3249 3249 3250 3250 3250 3250 3250 3250 3250 3249 3249 3249 3249 3249 3250 3250 3250 3250 3250 3250 3250 3250 3250 3250 3249 3249 3249 3248
3167 3169 3170 3172 3173 3175 3177 3179 3181 3183 3185 3187 3189 3191 3193 3195 3197 3200 3202 3204 3206 3208 3210 3212 3214 3216 3218 3220 3222 3224 3226 3229 3230 3232 3233 3234 3235 3237 3238 3239 3240 3241 3242 3243 3244 3245 3246 3246 3247 3247 3248 3248 3249 3249 3249 3249 3250 3250 3250 3250 3250 3250 3250 3250 3250 3250 3250 3250 3250 3250 3250 3250 3250 3250 3250 3250 3250 3250 3250 3250 3250 3250 3249 3249 3249
3165 3167 3168 3170 3171 3173 3175 3177 3180 3182 3184 3186 3187 3189 3191 3193 3195 3198 3200 3202 3204 3206 3208 3210 3213 3215 3217 3219 3221 3223 3225 3227 3228 3230 3231 3232 3234 3235 3237 3238 3239 3240 3241 3242 3243 3244 3245 3246 3246 3247 3247 3248 3248 3249 3249 3249 3250 3250 3250 3251 3251 3251 3251 3251 3251 3251 3251 3251 3250 3250 3251 3251 3250 3250 3250 3250 3250 3250 3250 3250 3250 3250 3250 3250 3249
3163 3164 3166 3168 3170 3172 3174 3175 3178 3180 3182 3184 3185 3187 3189 3191 3193 3195 3198 3200 3202 3204 3207 3209 3211 3213 3215 3217 3219 3221 3223 3225 3226 3228 3229 3230 3232 3234 3235 3237 3238 3239 3241 3241 3242 3243 3244 3245 3246 3246 3247 3247 3248 3248 3249 3249 3250 3250 3250 3251 3251 3251 3251 3251 3251 3251 3251 3251 3251 3251 3251 3251 3251 3251 3251 3251 3251 3251 3251 3251 3251 3251 3251 3250 3250
3161 3163 3164 3166 3168 3170 3172 3173 3175 3177 3179 3181 3183 3185 3187 3189 3191 3193 3196 3197 3200 3202 3205 3207 3209 3211 3213 3215 3217 3220 3222 3223 3225 3226 3228 3229 3231 3232 3234 3236 3237 3238 3240 3241 3241 3242 3243 3244 3245 3245 3246 3247 3247 3248 3248 3249 3249 3250 3250 3250 3251 3251 3251 3251 3252 3252 3252 3252 3252 3251 3252 3252 3252 3252 3252 3251 3251 3251 3251 3251 3251 3251 3251 3251 3250
3159 3160 3161 3163 3164 3167 3169 3171 3172 3174 3176 3178 3181 3183 3185 3187 3189 3191 3193 3195 3197 3200 3202 3205 3207 3209 3211 3213 3216 3218 3220 3222 3223 3225 3227 3228 3230 3231 3233 3234 3236 3237 3238 3239 3240 3241 3242 3243 3244 3244 3245 3246 3246 3247 3247 3248 3249 3249 3250 3250 3251 3251 3251 3252 3252 3252 3252 3252 3252 3252 3252 3252 3252 3252 3252 3252 3252 3252 3252 3252 3251 3251 3251 3251 3250
3156 3157 3159 3160 3162 3164 3167 3168 3170 3172 3174 3176 3178 3181 3183 3185 3187 3189 3191 3193 3195 3198 3200 3202 3204 3207 3209 3211 3214 3216 3218 3220 3222 3223 3225 3227 3228 3230 3231 3233 3235 3236 3237 3238 3239 3240 3241 3242 3243 3244 3244 3245 3245 3246 3246 3247 3248 3249 3250 3250 3251 3251 3251 3252 3252 3252 3252 3252 3252 3252 3252 3252 3252 3252 3252 3253 3253 3252 3252 3252 3252 3252 3251 3251 3251
3153 3154 3156 3158 3160 3162 3164 3166 3168 3169 3171 3174 3176 3178 3180 3182 3184 3187 3189 3191 3193 3195 3198 3200 3202 3204 3207 3210 3212 3214 3216 3218 3220 3222 3223 3225 3227 3228 3230 3232 3233 3235 3236 3237 3238 3239 3240 3241 3242 3243 3243 3244 3244 3245 3245 3246 3247 3248 3249 3250 3250 3251 3251 3251 3252 3252 3252 3252 3252 3252 3252 3252 3252 3252 3252 3253 3253 3253 3253 3253 3252 3252 3252 3252 3251
3149 3151 3153 3155 3158 3160 3162 3163 3165 3167 3169 3171 3173 3175 3177 3180 3182 3184 3186 3188 3191 3193 3195 3198 3200 3202 3205 3207 3209 3211 3214 3216 3218 3220 3221 3223 3225 3227 3229 3230 3232 3233 3234 3235 3236 3237 3238 3240 3241 3241 3242 3243 3243 3244 3244 3245 3246 3247 3248 3249 3250 3250 3251 3251 3251 3251 3251 3252 3252 3252 3252 3252 3253 3253 3253 3253 3253 3253 3253 3253 3253 3252 3252 3252 3252
3146 3147 3150 3153 3155 3157 3159 3161 3162 3164 3167 3169 3171 3173 3175 3177 3180 3182 3184 3186 3189 3191 3193 3196 3198 3200 3202 3205 3207 3209 3211 3213 3215 3217 3219 3221 3223 3225 3227 3229 3230 3231 3232 3234 3235 3236 3237 3238 3239 3240 3241 3242 3242 3243 3243 3244 3245 3246 3247 3247 3248 3249 3250 3250 3251 3251 3251 3251 3252 3252 3252 3252 3252 3253 3253 3253 3253 3253 3253 3253 3253 3253 3253 3252 3252
3142 3144 3148 3150 3152 3154 3156 3158 3159 3161 3164 3166 3168 3171 3173 3175 3178 3180 3182 3184 3186 3189 3191 3194 3196 3198 3200 3203 3205 3207 3209 3211 3213 3215 3217 3219 3221 3223 3225 3227 3228 3229 3231 3232 3233 3234 3236 3237 3238 3239 3239 3240 3241 3242 3242 3243 3244 3244 3245 3246 3247 3248 3249 3249 3250 3250 3250 3251 3251 3251 3252 3252 3252 3252 3253 3253 3253 3253 3253 3253 3253 3253 3253 3253 3253
3139 3142 3145 3147 3149 3151 3153 3155 3157 3159 3162 3164 3166 3169 3171 3173 3175 3178 3180 3182 3184 3187 3189 3191 3193 3196 3198 3200 3202 3204 3207 3209 3211 3213 3215 3217 3219 3221 3223 3224 3226 3227 3229 3230 3231 3233 3234 3236 3237 3237 3238 3239 3239 3240 3241 3241 3242 3243 3244 3245 3246 3246 3247 3248 3249 3249 3250 3250 3251 3251 3251 3251 3252 3252 3252 3253 3253 3253 3253 3253 3253 3253 3253 3253 3253
3136 3139 3142 3144 3146 3148 3150 3153 3155 3157 3159 3161 3164 3166 3168 3171 3173 3176 3178 3180 3182 3184 3187 3189 3191 3193 3196 3198 3200 3202 3205 3207 3208 3210 3212 3214 3216 3219 3221 3222 3224 3225 3226 3228 3229 3231 3233 3234 3235 3236 3237 3237 3238 3239 3239 3240 3241 3242 3243 3244 3244 3245 3246 3247 3248 3248 3249 3249 3250 3250 3251 3251 3251 3251 3252 3252 3253 3253 3253 3253 3253 3253 3253 3253 3253
3133 3136 3139 3141 3143 3145 3148 3151 3153 3155 3157 3159 3161 3163 3166 3168 3171 3173 3175 3177 3180 3182 3184 3186 3189 3191 3193 3196 3198 3200 3202 3204 3206 3208 3210 3212 3214 3216 3218 3220 3222 3223 3224 3226 3227 3229 3231 3232 3233 3234 3235 3236 3237 3237 3238 3239 3239 3240 3241 3242 3243 3244 3245 3246 3246 3247 3248 3249 3249 3250 3250 3250 3250 3251 3251 3252 3252 3253 3253 3253 3253 3253 3253 3253 3253
3131 3134 3137 3139 3141 3143 3145 3148 3150 3152 3154 3156 3158 3161 3163 3166 3168 3170 3172 3174 3177 3179 3181 3184 3186 3188 3191 3193 3196 3198 3200 3202 3204 3205 3207 3210 3212 3214 3216 3217 3219 3220 3222 3224 3225 3227 3229 3230 3232 3232 3233 3234 3235 3236 3236 3237 3238 3239 3240 3241 3241 3242 3243 3244 3245 3246 3246 3247 3248 3249 3249 3249 3249 3250 3250 3251 3252 3252 3252 3252 3252 3252 3252 3252 3252
3128 3132 3135 3137 3138 3140 3142 3145 3147 3148 3150 3153 3156 3158 3161 3163 3165 3167 3169 3171 3174 3176 3178 3181 3183 3186 3188 3191 3193 3195 3197 3199 3201 3203 3205 3207 3209 3211 3213 3214 3216 3218 3220 3221 3223 3225 3227 3228 3230 3230 3232 3233 3233 3234 3234 3235 3236 3237 3238 3239 3239 3240 3242 3242 3243 3244 3245 3246 3247 3248 3248 3248 3248 3249 3249 3250 3251 3251 3251 3251 3251 3251 3251 3251 3251
3126 3129 3132 3134 3135 3137 3139 3141 3143 3146 3148 3151 3153 3156 3158 3160 3163 3164 3166 3169 3171 3173 3176 3178 3180 3183 3186 3188 3190 3192 3195 3197 3199 3201 3203 3205 3207 3209 3210 3212 3214 3216 3217 3219 3221 3223 3224 3226 3227 3228 3230 3231 3231 3232 3233 3233 3234 3235 3236 3237 3238 3239 3240 3241 3242 3243 3243 3244 3245 3246 3247 3247 3247 3248 3248 3249 3250 3250 3250 3250 3250 3251 3251 3250 3250
3124 3127 3129 3131 3132 3133 3135 3137 3140 3143 3146 3148 3151 3154 3156 3158 3160 3162 3164 3166 3168 3171 3173 3175 3178 3180 3183 3185 3187 3189 3192 3194 3196 3198 3200 3203 3205 3206 3208 3210 3212 3213 3215 3217 3219 3221 3222 3224 3225 3226 3228 3229 3230 3231 3231 3231 3232 3233 3234 3235 3236 3237 3238 3239 3240 3241 3242 3242 3244 3245 3245 3246 3246 3246 3247 3248 3248 3249 3249 3249 3249 3249 3250 3249 3249
3121 3124 3126 3128 3129 3130 3131 3134 3137 3141 3143 3145 3148 3151 3153 3155 3158 3160 3162 3164 3166 3168 3170 3172 3175 3177 3180 3182 3184 3186 3189 3191 3193 3196 3198 3201 3202 3204 3206 3208 3210 3211 3213 3215 3217 3218 3220 3222 3223 3224 3226 3227 3228 3229 3229 3230 3231 3231 3232 3233 3234 3235 3236 3237 3238 3239 3240 3241 3242 3243 3244 3244 3244 3245 3246 3246 3247 3248 3248 3248 3248 3248 3248 3248 3247
3117 3121 3123 3124 3125 3127 3128 3131 3134 3138 3140 3143 3146 3148 3151 3153 3155 3158 3160 3162 3164 3165 3167 3169 3172 3174 3176 3179 3181 3183 3186 3188 3191 3193 3196 3198 3200 3201 3203 3205 3207 3209 3211 3212 3214 3216 3218 3219 3221 3222 3223 3225 3225 3226 3227 3228 3229 3229 3230 3231 3232 3233 3234 3235 3236 3237 3238 3239 3240 3241 3242 3242 3243 3243 3244 3245 3245 3246 3246 3246 3246 3246 3246 3246 3246
3114 3117 3119 3120 3122 3123 3125 3128 3131 3135 3138 3140 3143 3146 3148 3150 3153 3155 3157 3159 3161 3163 3165 3167 3169 3171 3173 3176 3178 3180 3183 3186 3188 3190 3193 3195 3197 3199 3201 3203 3205 3207 3208 3210 3212 3214 3215 3217 3218 3219 3221 3222 3223 3224 3225 3226 3227 3227 3228 3229 3230 3232 3232 3233 3234 3235 3236 3237 3238 3239 3240 3241 3241 3242 3242 3243 3243 3244 3244 3245 3244 3244 3244 3244 3244
3110 3113 3115 3117 3119 3120 3122 3125 3127 3130 3133 3137 3140 3142 3145 3148 3150 3152 3154 3156 3158 3160 3162 3164 3166 3169 3171 3173 3176 3178 3180 3183 3186 3188 3190 3192 3194 3196 3198 3200 3202 3204 3206 3208 3210 3211 3213 3214 3216 3217 3218 3219 3220 3221 3222 3224 3225 3225 3227 3228 3229 3230 3230 3231 3232 3233 3234 3235 3236 3237 3238 3239 3239 3240 3241 3241 3241 3242 3242 3243 3243 3243 3242 3242 3242
3106 3109 3111 3113 3115 3117 3119 3122 3124 3126 3129 3132 3136 3138 3141 3144 3146 3149 3151 3153 3155 3157 3159 3161 3164 3166 3168 3171 3173 3175 3178 3180 3182 3185 3187 3189 3191 3193 3195 3197 3199 3202 3203 3205 3207 3209 3210 3212 3213 3214 3215 3216 3217 3218 3219 3221 3223 3224 3225 3226 3227 3228 3228 3229 3230 3231 3232 3233 3234 3235 3236 3237 3237 3238 3239 3239 3240 3241 3241 3241 3241 3241 3241 3240 3240
3103 3105 3107 3109 3112 3114 3116 3118 3121 3123 3125 3128 3131 3134 3137 3140 3143 3145 3148 3150 3152 3155 3157 3159 3161 3163 3165 3168 3170 3172 3175 3177 3179 3182 3184 3186 3188 3190 3192 3194 3197 3199 3201 3202 3204 3206 3207 3209 3210 3211 3212 3213 3214 3215 3217 3219 3221 3222 3223 3223 3224 3225 3226 3227 3228 3229 3230 3231 3232 3233 3234 3235 3236 3236 3237 3238 3239 3239 3239 3240 3239 3239 3239 3238 3238
3099 3101 3103 3105 3108 3110 3112 3115 3117 3120 3123 3125 3127 3131 3134 3137 3139 3142 3145 3147 3150 3152 3154 3156 3158 3160 3162 3165 3167 3170 3172 3174 3176 3179 3181 3183 3186 3188 3190 3192 3194 3196 3198 3200 3201 3203 3204 3206 3207 3208 3210 3210 3212 3213 3215 3217 3218 3219 3220 3221 3222 3223 3224 3225 3226 3227 3228 3229 3231 3232 3233 3233 3234 3235 3236 3237 3237 3237 3238 3238 3238 3237 3237 3236 3236
3096 3097 3100 3102 3104 3106 3108 3111 3114 3117 3120 3122 3124 3127 3130 3133 3135 3138 3141 3144 3146 3149 3152 3154 3155 3157 3159 3162 3165 3167 3169 3171 3173 3176 3178 3181 3183 3185 3187 3189 3191 3193 3195 3197 3198 3200 3201 3203 3204 3205 3207 3208 3209 3210 3212 3214 3216 3217 3218 3219 3220 3221 3221 3222 3224 3225 3226 3228 3229 3230 3231 3232 3233 3234 3234 3235 3235 3236 3236 3236 3236 3235 3235 3235 3234
3092 3094 3096 3099 3101 3103 3105 3108 3111 3114 3116 3119 3122 3124 3127 3130 3133 3135 3137 3140 3143 3146 3149 3151 3153 3154 3157 3159 3162 3164 3166 3168 3171 3173 3175 3177 3179 3182 3184 3186 3188 3190 3192 3193 3195 3197 3198 3200 3201 3202 3204 3205 3206 3208 3210 3212 3213 3214 3215 3216 3217 3218 3219 3220 3221 3223 3224 3225 3227 3228 3229 3230 3231 3232 3232 3233 3234 3234 3234 3234 3233 3233 3233 3233 3232
3090 3092 3093 3095 3097 3099 3101 3105 3108 3110 3114 3116 3119 3121 3124 3126 3128 3131 3133 3136 3139 3142 3145 3147 3150 3152 3154 3157 3159 3161 3164 3166 3168 3170 3172 3174 3176 3179 3181 3183 3185 3187 3188 3190 3192 3193 3195 3197 3198 3200 3201 3203 3204 3205 3207 3209 3210 3212 3213 3214 3215 3216 3217 3218 3219 3221 3222 3223 3225 3226 3227 3228 3229 3229 3230 3231 3232 3232 3231 3231 3231 3231 3231 3231 3230
3088 3089 3091 3092 3093 3095 3098 3102 3105 3108 3110 3112 3115 3118 3120 3122 3124 3127 3130 3132 3135 3138 3141 3144 3147 3150 3152 3154 3156 3159 3161 3163 3165 3167 3169 3171 3173 3175 3178 3180 3182 3183 3185 3187 3189 3190 3192 3193 3195 3197 3198 3200 3201 3203 3204 3206 3208 3209 3210 3211 3212 3213 3214 3215 3217 3218 3219 3221 3222 3223 3225 3226 3227 3227 3228 3229 3229 3229 3229 3228 3228 3228 3228 3228 3228
3084 3086 3087 3088 3090 3092 3095 3099 3102 3104 3106 3109 3112 3114 3117 3119 3121 3123 3126 3129 3132 3135 3138 3141 3144 3147 3150 3152 3154 3156 3158 3160 3162 3164 3166 3168 3170 3172 3174 3176 3178 3180 3182 3184 3186 3187 3189 3190 3192 3194 3195 3197 3199 3200 3202 3203 3205 3206 3207 3208 3209 3210 3211 3212 3214 3215 3217 3218 3219 3221 3222 3223 3224 3225 3226 3227 3227 3227 3226 3225 3225 3225 3225 3225 3225
3080 3081 3082 3084 3086 3089 3092 3095 3097 3099 3102 3106 3109 3111 3113 3115 3117 3120 3123 3126 3128 3131 3135 3138 3141 3144 3147 3149 3151 3153 3155 3157 3159 3161 3163 3165 3167 3169 3171 3173 3175 3177 3178 3180 3183 3184 3186 3188 3190 3191 3192 3194 3196 3198 3199 3201 3202 3203 3204 3205 3206 3207 3208 3210 3211 3213 3214 3215 3217 3218 3219 3221 3222 3223 3224 3225 3225 3224 3223 3222 3223 3223 3223 3223 3222
3076 3076 3077 3079 3082 3085 3088 3091 3093 3096 3099 3102 3105 3108 3110 3112 3114 3117 3120 3122 3125 3129 3132 3135 3139 3142 3144 3147 3149 3150 3152 3154 3156 3158 3160 3162 3164 3166 3168 3170 3172 3174 3176 3178 3180 3182 3183 3185 3187 3188 3189 3192 3194 3195 3196 3198 3199 3200 3201 3202 3203 3204 3205 3207 3208 3210 3211 3212 3214 3215 3217 3218 3219 3220 3222 3222 3222 3221 3221 3220 3220 3220 3220 3220 3220
3071 3072 3073 3074 3077 3080 3083 3086 3089 3092 3096 3099 3101 3105 3108 3109 3111 3114 3117 3119 3123 3126 3129 3133 3136 3139 3142 3144 3146 3148 3150 3152 3154 3156 3158 3160 3162 3164 3166 3168 3170 3171 3173 3175 3177 3179 3180 3182 3183 3185 3186 3189 3191 3192 3193 3195 3196 3198 3199 3199 3200 3201 3202 3203 3205 3207 3208 3209 3211 3212 3213 3215 3216 3218 3219 3220 3219 3219 3218 3218 3218 3218 3218 3217 3218
3068 3068 3068 3069 3071 3074 3077 3081 3085 3089 3093 3096 3098 3102 3105 3107 3109 3111 3114 3117 3121 3124 3127 3131 3133 3136 3139 3141 3143 3146 3147 3149 3151 3153 3155 3157 3159 3161 3163 3165 3167 3168 3170 3172 3174 3176 3177 3179 3180 3181 3183 3185 3187 3188 3190 3192 3193 3195 3196 3196 3197 3197 3198 3201 3203 3204 3205 3206 3208 3209 3210 3212 3213 3214 3215 3216 3217 3216 3215 3215 3216 3216 3215 3215 3215
3064 3064 3064 3065 3066 3068 3072 3076 3081 3085 3089 3092 3095 3099 3102 3104 3106 3109 3112 3116 3120 3122 3125 3128 3130 3134 3136 3139 3141 3143 3145 3147 3149 3151 3153 3154 3156 3158 3160 3162 3164 3165 3167 3169 3171 3172 3174 3175 3177 3178 3180 3182 3183 3185 3186 3188 3190 3191 3192 3193 3193 3194 3196 3198 3200 3201 3202 3203 3204 3205 3207 3209 3210 3211 3212 3213 3213 3213 3213 3213 3213 3213 3213 3213 3211
3061 3061 3061 3062 3063 3065 3067 3071 3076 3080 3085 3089 3092 3096 3099 3102 3104 3108 3112 3115 3117 3120 3122 3125 3128 3131 3134 3136 3138 3140 3142 3144 3146 3148 3150 3152 3154 3155 3157 3159 3161 3163 3164 3166 3167 3169 3171 3172 3174 3175 3176 3178 3180 3181 3183 3185 3186 3188 3188 3189 3190 3191 3193 3195 3196 3197 3198 3199 3200 3202 3203 3205 3206 3207 3208 3209 3209 3210 3210 3210 3210 3210 3210 3209 3207
3058 3058 3058 3059 3061 3062 3064 3068 3072 3076 3081 3085 3089 3093 3097 3100 3103 3107 3110 3112 3114 3117 3120 3122 3126 3129 3131 3133 3135 3137 3139 3141 3143 3145 3147 3149 3151 3152 3154 3156 3158 3160 3161 3163 3164 3166 3168 3169 3170 3172 3173 3174 3176 3178 3179 3181 3183 3184 3185 3186 3187 3188 3189 3191 3192 3193 3194 3196 3197 3199 3200 3201 3202 3203 3204 3205 3206 3206 3206 3206 3206 3206 3206 3205 3204
3055 3055 3056 3058 3059 3061 3063 3066 3069 3073 3078 3082 3086 3091 3095 3098 3101 3104 3106 3109 3112 3114 3117 3120 3123 3126 3129 3131 3132 3134 3136 3138 3140 3142 3144 3146 3148 3150 3151 3153 3155 3156 3158 3159 3161 3163 3164 3166 3167 3168 3169 3171 3172 3174 3176 3177 3179 3180 3182 3183 3184 3185 3186 3187 3188 3190 3191 3193 3194 3195 3196 3197 3199 3200 3201 3202 3202 3202 3202 3202 3202 3201 3201 3201 3201
3053 3053 3054 3056 3058 3059 3062 3064 3067 3071 3076 3080 3084 3089 3092 3096 3098 3101 3103 3106 3109 3111 3114 3118 3120 3123 3126 3128 3130 3131 3133 3135 3137 3139 3141 3143 3145 3146 3148 3150 3151 3153 3154 3156 3158 3159 3161 3162 3164 3165 3167 3168 3170 3171 3173 3174 3176 3177 3178 3180 3181 3181 3182 3184 3185 3186 3188 3189 3190 3191 3192 3194 3196 3197 3197 3198 3198 3198 3198 3198 3198 3197 3197 3197 3196
3052 3052 3053 3054 3056 3057 3060 3063 3066 3070 3074 3078 3082 3086 3089 3092 3095 3098 3101 3103 3106 3109 3112 3115 3117 3120 3123 3125 3127 3129 3131 3133 3134 3136 3138 3140 3142 3143 3145 3147 3148 3150 3151 3153 3155 3156 3157 3159 3161 3162 3164 3166 3167 3168 3170 3171 3172 3174 3175 3176 3177 3178 3179 3180 3181 3182 3184 3185 3186 3188 3190 3191 3192 3193 3194 3194 3194 3194 3194 3194 3194 3193 3192 3191 3191
3050 3050 3051 3053 3054 3055 3058 3061 3065 3068 3072 3075 3079 3083 3087 3090 3093 3096 3098 3101 3104 3107 3110 3112 3115 3118 3120 3123 3125 3126 3128 3130 3132 3134 3135 3137 3139 3140 3142 3144 3146 3147 3148 3150 3152 3153 3154 3156 3158 3159 3161 3163 3164 3165 3166 3168 3169 3170 3171 3173 3174 3175 3176 3177 3178 3179 3180 3181 3183 3185 3187 3188 3188 3189 3189 3190 3190 3190 3190 3190 3189 3188 3187 3186 3185
3049 3049 3050 3051 3052 3054 3056 3060 3063 3066 3070 3073 3077 3081 3084 3088 3090 3093 3096 3098 3101 3104 3108 3111 3114 3116 3118 3120 3122 3124 3126 3128 3129 3131 3133 3134 3136 3137 3139 3141 3143 3144 3146 3148 3149 3150 3152 3153 3155 3157 3159 3160 3160 3161 3163 3164 3165 3167 3168 3169 3170 3172 3173 3174 3175 3176 3177 3179 3180 3182 3183 3184 3184 3185 3185 3185 3185 3185 3185 3184 3184 3183 3182 3181 3180
3048 3049 3049 3050 3051 3052 3054 3058 3061 3064 3068 3071 3074 3078 3082 3085 3087 3090 3094 3097 3099 3103 3106 3109 3111 3114 3116 3118 3120 3122 3123 3125 3127 3128 3130 3132 3133 3135 3137 3139 3140 3142 3144 3145 3147 3148 3149 3151 3153 3155 3155 3156 3157 3158 3160 3161 3162 3164 3165 3166 3167 3168 3169 3171 3172 3173 3174 3176 3177 3178 3179 3179 3180 3180 3180 3180 3180 3180 3179 3179 3179 3178 3178 3177 3177
3048 3048 3048 3048 3050 3051 3053 3056 3059 3062 3065 3069 3072 3076 3079 3082 3085 3088 3091 3094 3097 3101 3103 3106 3109 3111 3113 3115 3117 3119 3121 3123 3124 3126 3127 3129 3131 3133 3134 3136 3138 3139 3141 3143 3144 3145 3147 3149 3150 3151 3152 3153 3154 3155 3156 3158 3159 3160 3161 3162 3163 3164 3166 3167 3168 3170 3171 3172 3173 3173 3174 3174 3175 3175 3175 3175 3175 3175 3175 3175 3175 3174 3174 3174 3173
3047 3047 3047 3048 3048 3050 3052 3054 3057 3060 3063 3067 3071 3074 3077 3079 3082 3085 3089 3092 3095 3099 3101 3104 3107 3109 3111 3113 3115 3117 3119 3121 3122 3124 3126 3128 3129 3131 3132 3134 3135 3137 3139 3140 3142 3143 3144 3146 3147 3148 3149 3150 3151 3152 3153 3154 3155 3156 3157 3158 3159 3161 3162 3163 3164 3166 3166 3167 3168 3168 3169 3169 3170 3170 3170 3171 3171 3170 3170 3171 3171 3171 3171 3170 3170